GIA6108 WIMM-OEMA

Flight info

Callsign GIA6108
Flight time N/A
Altitude 34000
Route DUDEN DCT BULVA M300 LOTAV N569 TOKRA/N0438F280 Y511 ITRUX/N0469F340 Y511 ELONU
Aircraft A339/H-SADE1E2E3GHIJ3J5M1P2RWXY/LB2D1

Departure

Time 2026-04-24 07:29
Airport Kualanamu International Airport (WIMM)

Arrival

Time N/A
Airport Prince Mohammad Bin Abdulaziz Airport (OEMA)
Time Latitude Longitude Altitude Speed Heading
2026-04-24 07:18 3.63876 98.87972 40 ft 0 kts 316°
2026-04-24 07:20 3.63879 98.87969 40 ft 2 kts 318°
2026-04-24 07:20 3.63916 98.87970 40 ft 9 kts 22°
2026-04-24 07:20 3.63981 98.88024 40 ft 14 kts 44°
2026-04-24 07:21 3.64051 98.88093 43 ft 13 kts 44°
2026-04-24 07:21 3.64124 98.88142 45 ft 11 kts 359°
2026-04-24 07:21 3.64157 98.88120 46 ft 4 kts 312°
2026-04-24 07:21 3.64198 98.88082 45 ft 12 kts 316°
2026-04-24 07:22 3.64276 98.88007 44 ft 16 kts 313°
2026-04-24 07:22 3.64275 98.87935 41 ft 14 kts 230°
2026-04-24 07:22 3.64185 98.87843 37 ft 19 kts 225°
2026-04-24 07:22 3.64102 98.87761 37 ft 16 kts 225°
2026-04-24 07:23 3.64018 98.87678 37 ft 18 kts 224°
2026-04-24 07:23 3.63913 98.87575 37 ft 22 kts 224°
2026-04-24 07:23 3.63810 98.87473 44 ft 20 kts 224°
2026-04-24 07:23 3.63740 98.87405 47 ft 21 kts 224°
2026-04-24 07:24 3.63616 98.87272 53 ft 13 kts 249°
2026-04-24 07:24 3.63628 98.87221 54 ft 5 kts 297°
2026-04-24 07:24 3.63630 98.87174 54 ft 8 kts 244°
2026-04-24 07:24 3.63581 98.87119 55 ft 13 kts 226°
2026-04-24 07:25 3.63529 98.87066 56 ft 19 kts 226°
2026-04-24 07:25 3.63390 98.86928 53 ft 22 kts 225°
2026-04-24 07:25 3.63274 98.86809 48 ft 26 kts 226°
2026-04-24 07:25 3.63144 98.86678 43 ft 24 kts 224°
2026-04-24 07:26 3.63027 98.86563 40 ft 23 kts 224°
2026-04-24 07:26 3.62910 98.86446 42 ft 24 kts 225°
2026-04-24 07:26 3.62795 98.86327 45 ft 23 kts 225°
2026-04-24 07:26 3.62692 98.86224 50 ft 21 kts 224°
2026-04-24 07:27 3.62575 98.86111 55 ft 23 kts 224°
2026-04-24 07:27 3.62514 98.85984 60 ft 19 kts 288°
2026-04-24 07:27 3.62586 98.85895 58 ft 11 kts 341°
2026-04-24 07:27 3.62653 98.85930 55 ft 9 kts 44°
2026-04-24 07:28 3.62657 98.85934 55 ft 0 kts 44°
2026-04-24 07:28 3.62698 98.85973 53 ft 29 kts 45°
2026-04-24 07:28 3.62999 98.86272 40 ft 90 kts 45°
2026-04-24 07:28 3.63575 98.86839 54 ft 139 kts 46°
2026-04-24 07:29 3.64368 98.87621 117 ft 174 kts 42°
2026-04-24 07:29 3.65234 98.88456 662 ft 173 kts 42°
2026-04-24 07:29 3.66131 98.89240 1224 ft 173 kts 27°
2026-04-24 07:29 3.67257 98.89540 1811 ft 168 kts 354°
2026-04-24 07:30 3.68261 98.89002 2023 ft 177 kts 303°
2026-04-24 07:30 3.68497 98.87775 2194 ft 194 kts 255°
2026-04-24 07:30 3.67893 98.86517 2410 ft 205 kts 248°
2026-04-24 07:30 3.67641 98.85131 2616 ft 210 kts 279°
2026-04-24 07:31 3.68113 98.83724 2838 ft 217 kts 300°
2026-04-24 07:31 3.68861 98.82353 3092 ft 230 kts 302°
2026-04-24 07:31 3.69668 98.80941 3347 ft 243 kts 301°
2026-04-24 07:31 3.70528 98.79424 3608 ft 257 kts 301°
2026-04-24 07:32 3.74068 98.73042 5641 ft 270 kts 300°
2026-04-24 07:33 3.74980 98.71388 6186 ft 271 kts 300°
2026-04-24 07:33 3.75879 98.69754 6710 ft 273 kts 300°
2026-04-24 07:33 3.76805 98.68072 7236 ft 275 kts 299°
2026-04-24 07:33 3.77718 98.66411 7748 ft 276 kts 299°
2026-04-24 07:34 3.78646 98.64722 8284 ft 277 kts 299°
2026-04-24 07:34 3.79577 98.63029 8802 ft 279 kts 299°
2026-04-24 07:34 3.80513 98.61327 9304 ft 281 kts 299°
2026-04-24 07:34 3.81453 98.59618 9801 ft 283 kts 298°
2026-04-24 07:35 3.82404 98.57886 10262 ft 287 kts 298°
2026-04-24 07:35 3.83391 98.56090 10496 ft 299 kts 298°
2026-04-24 07:35 3.84404 98.54244 10720 ft 311 kts 298°
2026-04-24 07:35 3.85468 98.52306 10944 ft 324 kts 298°
2026-04-24 07:36 3.86571 98.50298 11163 ft 336 kts 298°
2026-04-24 07:36 3.87709 98.48179 11386 ft 347 kts 294°
2026-04-24 07:36 3.88245 98.45817 11681 ft 355 kts 270°
2026-04-24 07:36 3.88136 98.43354 12231 ft 356 kts 266°
2026-04-24 07:37 3.87962 98.40878 12750 ft 358 kts 266°
2026-04-24 07:37 3.87801 98.38377 13238 ft 361 kts 266°
2026-04-24 07:37 3.87661 98.35877 13728 ft 364 kts 267°
2026-04-24 07:37 3.87536 98.33344 14225 ft 366 kts 267°
2026-04-24 07:38 3.87420 98.30782 14722 ft 369 kts 267°
2026-04-24 07:38 3.87311 98.28202 15214 ft 372 kts 267°
2026-04-24 07:38 3.87206 98.25611 15705 ft 375 kts 267°
2026-04-24 07:38 3.87103 98.23020 16187 ft 378 kts 267°
2026-04-24 07:39 3.86999 98.20364 16676 ft 381 kts 267°
2026-04-24 07:39 3.86897 98.17715 17159 ft 384 kts 267°
2026-04-24 07:39 3.86795 98.15065 17636 ft 386 kts 267°
2026-04-24 07:39 3.86725 98.13256 17961 ft 388 kts 267°
2026-04-24 07:40 3.86656 98.11473 18275 ft 390 kts 267°
2026-04-24 07:40 3.86552 98.08744 18750 ft 393 kts 267°
2026-04-24 07:40 3.86445 98.05979 19222 ft 396 kts 267°
2026-04-24 07:40 3.86268 98.01371 19985 ft 401 kts 267°
2026-04-24 07:41 3.86162 97.98593 20427 ft 404 kts 267°
2026-04-24 07:41 3.86052 97.95756 20869 ft 407 kts 267°
2026-04-24 07:41 3.85944 97.92934 21298 ft 409 kts 267°
2026-04-24 07:41 3.85834 97.90093 21712 ft 412 kts 267°
2026-04-24 07:42 3.85723 97.87211 22127 ft 415 kts 267°
2026-04-24 07:42 3.85611 97.84307 22524 ft 418 kts 267°
2026-04-24 07:42 3.85500 97.81415 22906 ft 420 kts 267°
2026-04-24 07:42 3.85387 97.78503 23287 ft 423 kts 267°
2026-04-24 07:43 3.85274 97.75567 23656 ft 425 kts 267°
2026-04-24 07:43 3.85157 97.72569 24021 ft 428 kts 267°
2026-04-24 07:43 3.85043 97.69621 24370 ft 430 kts 267°
2026-04-24 07:43 3.84926 97.66602 24716 ft 432 kts 267°
2026-04-24 07:44 3.84810 97.63605 25054 ft 435 kts 267°
2026-04-24 07:44 3.84692 97.60571 25380 ft 437 kts 267°
2026-04-24 07:44 3.84574 97.57551 25694 ft 439 kts 267°
2026-04-24 07:44 3.84456 97.54497 26012 ft 441 kts 266°
2026-04-24 07:45 3.84416 97.53469 26117 ft 442 kts 267°
2026-04-24 07:45 3.84335 97.51411 26326 ft 443 kts 267°
2026-04-24 07:45 3.84133 97.46241 26814 ft 447 kts 267°
2026-04-24 07:45 3.83972 97.42110 27192 ft 450 kts 267°
2026-04-24 07:46 3.83850 97.38988 27470 ft 452 kts 267°
2026-04-24 07:46 3.83726 97.35815 27750 ft 454 kts 267°
2026-04-24 07:46 3.83604 97.32691 28017 ft 456 kts 266°
2026-04-24 07:46 3.83479 97.29492 28287 ft 458 kts 266°
2026-04-24 07:47 3.83354 97.26292 28554 ft 460 kts 266°
2026-04-24 07:47 3.83229 97.23111 28810 ft 461 kts 266°
2026-04-24 07:47 3.83102 97.19893 29088 ft 462 kts 266°
2026-04-24 07:47 3.82976 97.16686 29350 ft 464 kts 267°
2026-04-24 07:48 3.82848 97.13448 29616 ft 465 kts 267°
2026-04-24 07:48 3.82720 97.10215 29881 ft 466 kts 267°
2026-04-24 07:48 3.82591 97.06956 30152 ft 467 kts 267°
2026-04-24 07:48 3.82464 97.03741 30485 ft 466 kts 267°
2026-04-24 07:49 3.82336 97.00517 30845 ft 464 kts 267°
2026-04-24 07:49 3.82208 96.97293 31174 ft 463 kts 268°
2026-04-24 07:49 3.82081 96.94075 31467 ft 462 kts 268°
2026-04-24 07:49 3.81956 96.90872 31751 ft 462 kts 268°
2026-04-24 07:50 3.81829 96.87659 32011 ft 462 kts 268°
2026-04-24 07:50 3.81701 96.84422 32250 ft 462 kts 268°
2026-04-24 07:50 3.81575 96.81234 32463 ft 463 kts 268°
2026-04-24 07:50 3.81447 96.77993 32681 ft 464 kts 268°
2026-04-24 07:51 3.81319 96.74786 32891 ft 465 kts 268°
2026-04-24 07:51 3.81190 96.71541 33092 ft 466 kts 268°
2026-04-24 07:51 3.81062 96.68299 33284 ft 466 kts 268°
2026-04-24 07:51 3.80933 96.65040 33484 ft 467 kts 268°
2026-04-24 07:52 3.80804 96.61808 33669 ft 468 kts 268°
2026-04-24 07:52 3.80674 96.58559 33783 ft 470 kts 268°
2026-04-24 07:52 3.80552 96.52031 33790 ft 469 kts 271°
2026-04-24 07:53 3.81050 96.45518 33794 ft 470 kts 277°
2026-04-24 07:53 3.82219 96.39124 33795 ft 470 kts 283°
2026-04-24 07:54 3.84021 96.32836 33796 ft 470 kts 287°
2026-04-24 07:54 3.85992 96.26592 33796 ft 470 kts 287°
2026-04-24 07:55 3.87626 96.21410 33796 ft 470 kts 287°
2026-04-24 07:55 3.89913 96.14130 33797 ft 470 kts 287°
2026-04-24 07:56 3.91864 96.07908 33795 ft 470 kts 287°
2026-04-24 07:56 3.93817 96.01674 33796 ft 470 kts 287°
2026-04-24 07:57 3.95764 95.95454 33796 ft 470 kts 287°
2026-04-24 07:57 3.97715 95.89221 33797 ft 470 kts 287°
2026-04-24 07:58 3.99669 95.82978 33796 ft 470 kts 287°
2026-04-24 07:58 4.01606 95.76786 33795 ft 470 kts 287°
2026-04-24 07:59 4.03561 95.70533 33796 ft 470 kts 287°
2026-04-24 07:59 4.05509 95.64299 33796 ft 470 kts 287°
2026-04-24 08:00 4.07458 95.58063 33795 ft 470 kts 287°
2026-04-24 08:00 4.09407 95.51825 33796 ft 470 kts 287°
2026-04-24 08:01 4.11348 95.45609 33795 ft 470 kts 287°
2026-04-24 08:01 4.13292 95.39386 33796 ft 470 kts 287°
2026-04-24 08:02 4.15241 95.33144 33796 ft 470 kts 287°
2026-04-24 08:02 4.17185 95.26915 33796 ft 470 kts 287°
2026-04-24 08:03 4.19134 95.20667 33796 ft 470 kts 287°
2026-04-24 08:03 4.21075 95.14446 33796 ft 470 kts 287°
2026-04-24 08:04 4.23016 95.08219 33795 ft 470 kts 287°
2026-04-24 08:04 4.24962 95.01975 33796 ft 469 kts 287°
2026-04-24 08:05 4.26892 94.95768 33796 ft 467 kts 288°
2026-04-24 08:05 4.28812 94.89586 33795 ft 467 kts 289°
2026-04-24 08:06 4.30762 94.83328 33793 ft 474 kts 289°
2026-04-24 08:06 4.32746 94.76981 33794 ft 483 kts 289°
2026-04-24 08:07 4.34741 94.70578 33796 ft 484 kts 289°
2026-04-24 08:07 4.36752 94.64114 33796 ft 484 kts 289°
2026-04-24 08:08 4.38749 94.57692 33796 ft 484 kts 289°
2026-04-24 08:09 4.41740 94.48069 33796 ft 484 kts 289°
2026-04-24 08:09 4.43749 94.41605 33796 ft 484 kts 289°
2026-04-24 08:10 4.45735 94.35214 33796 ft 484 kts 289°
2026-04-24 08:10 4.47737 94.28765 33796 ft 484 kts 289°
2026-04-24 08:11 4.49739 94.22315 33796 ft 484 kts 289°
2026-04-24 08:11 4.51732 94.15894 33796 ft 484 kts 289°
2026-04-24 08:12 4.53718 94.09492 33796 ft 485 kts 289°
2026-04-24 08:12 4.55717 94.03047 33796 ft 485 kts 289°
2026-04-24 08:13 4.57672 93.96609 33796 ft 485 kts 288°
2026-04-24 08:13 4.59541 93.90103 33796 ft 485 kts 287°
2026-04-24 08:14 4.61395 93.83646 33796 ft 485 kts 287°
2026-04-24 08:14 4.63268 93.77145 33796 ft 485 kts 287°
2026-04-24 08:15 4.65128 93.70700 33796 ft 485 kts 287°
2026-04-24 08:15 4.66996 93.64230 33796 ft 485 kts 287°
2026-04-24 08:16 4.68867 93.57744 33796 ft 485 kts 287°
2026-04-24 08:16 4.70742 93.51244 33796 ft 485 kts 287°
2026-04-24 08:17 4.72610 93.44766 33796 ft 485 kts 288°
2026-04-24 08:17 4.74464 93.38332 33796 ft 485 kts 287°
2026-04-24 08:18 4.76352 93.31848 33795 ft 485 kts 288°
2026-04-24 08:18 4.78257 93.25388 33796 ft 485 kts 288°
2026-04-24 08:19 4.80160 93.18927 33796 ft 484 kts 288°
2026-04-24 08:19 4.82071 93.12428 33796 ft 485 kts 288°
2026-04-24 08:20 4.83968 93.05972 33796 ft 484 kts 288°
2026-04-24 08:20 4.85881 92.99458 33785 ft 485 kts 288°
2026-04-24 08:21 4.87785 92.92973 33776 ft 485 kts 288°
2026-04-24 08:21 4.89686 92.86493 33772 ft 485 kts 288°
2026-04-24 08:22 4.91577 92.80048 33771 ft 485 kts 288°
2026-04-24 08:22 4.93480 92.73560 33771 ft 484 kts 288°
2026-04-24 08:23 4.95369 92.67114 33771 ft 484 kts 288°
2026-04-24 08:23 4.97268 92.60631 33771 ft 484 kts 288°
2026-04-24 08:24 4.99164 92.54155 33771 ft 484 kts 288°
2026-04-24 08:24 5.01041 92.47746 33771 ft 483 kts 288°
2026-04-24 08:25 5.02931 92.41286 33771 ft 482 kts 288°
2026-04-24 08:25 5.04819 92.34834 33771 ft 482 kts 288°
2026-04-24 08:26 5.06690 92.28435 33771 ft 481 kts 288°
2026-04-24 08:26 5.08579 92.21976 33771 ft 481 kts 288°
2026-04-24 08:27 5.10448 92.15578 33772 ft 480 kts 288°
2026-04-24 08:27 5.12325 92.09151 33771 ft 480 kts 288°
2026-04-24 08:28 5.14188 92.02772 33771 ft 479 kts 288°
2026-04-24 08:28 5.16120 91.96391 33771 ft 479 kts 289°
2026-04-24 08:29 5.18193 91.90057 33771 ft 479 kts 290°
2026-04-24 08:29 5.20261 91.83743 33771 ft 479 kts 290°
2026-04-24 08:30 5.22333 91.77380 33771 ft 479 kts 290°
2026-04-24 08:30 5.24387 91.71057 33771 ft 479 kts 289°
2026-04-24 08:31 5.26445 91.64716 33771 ft 479 kts 289°
2026-04-24 08:31 5.28495 91.58395 33771 ft 479 kts 289°
2026-04-24 08:32 5.30551 91.52052 33771 ft 479 kts 289°
2026-04-24 08:32 5.32614 91.45684 33771 ft 479 kts 289°
2026-04-24 08:33 5.34673 91.39324 33771 ft 479 kts 289°
2026-04-24 08:33 5.36726 91.32982 33771 ft 479 kts 289°
2026-04-24 08:34 5.38786 91.26615 33771 ft 479 kts 289°
2026-04-24 08:34 5.40836 91.20277 33771 ft 479 kts 289°
2026-04-24 08:35 5.42885 91.13940 33771 ft 479 kts 289°
2026-04-24 08:35 5.44950 91.07552 33771 ft 480 kts 289°
2026-04-24 08:36 5.47007 91.01186 33771 ft 481 kts 289°
2026-04-24 08:36 5.49071 90.94795 33771 ft 482 kts 289°
2026-04-24 08:37 5.51116 90.88458 33772 ft 482 kts 289°
2026-04-24 08:37 5.53181 90.82057 33771 ft 482 kts 289°
2026-04-24 08:38 5.55250 90.75644 33771 ft 482 kts 289°
2026-04-24 08:38 5.57304 90.69272 33770 ft 482 kts 289°
2026-04-24 08:39 5.59365 90.62876 33771 ft 482 kts 289°
2026-04-24 08:39 5.61425 90.56485 33771 ft 482 kts 289°
2026-04-24 08:40 5.63485 90.50085 33770 ft 482 kts 289°
2026-04-24 08:40 5.65541 90.43700 33771 ft 482 kts 289°
2026-04-24 08:41 5.67585 90.37347 33771 ft 482 kts 289°
2026-04-24 08:41 5.69649 90.30929 33770 ft 482 kts 289°
2026-04-24 08:42 5.71700 90.24551 33771 ft 482 kts 289°
2026-04-24 08:42 5.73756 90.18153 33771 ft 482 kts 289°
2026-04-24 08:43 5.75814 90.11746 33770 ft 482 kts 289°
2026-04-24 08:43 5.77870 90.05342 33771 ft 482 kts 289°
2026-04-24 08:44 5.79916 89.98966 33771 ft 482 kts 289°
2026-04-24 08:44 5.81973 89.92557 33770 ft 482 kts 289°
2026-04-24 08:45 5.84021 89.86171 33771 ft 482 kts 289°
2026-04-24 08:45 5.86068 89.79781 33771 ft 482 kts 289°
2026-04-24 08:46 5.88113 89.73399 33771 ft 482 kts 289°
2026-04-24 08:46 5.90173 89.66969 33771 ft 482 kts 289°
2026-04-24 08:47 5.92210 89.60604 33771 ft 482 kts 289°
2026-04-24 08:47 5.94258 89.54206 33771 ft 482 kts 289°
2026-04-24 08:48 5.96306 89.47802 33770 ft 482 kts 289°
2026-04-24 08:48 5.98350 89.41409 33771 ft 482 kts 289°
2026-04-24 08:49 6.00396 89.35006 33772 ft 482 kts 289°
2026-04-24 08:49 6.02432 89.28634 33771 ft 482 kts 289°
2026-04-24 08:50 6.04482 89.22214 33771 ft 482 kts 289°
2026-04-24 08:50 6.06519 89.15833 33771 ft 482 kts 289°
2026-04-24 08:51 6.08562 89.09429 33772 ft 482 kts 289°
2026-04-24 08:51 6.10619 89.02978 33772 ft 482 kts 289°
2026-04-24 08:52 6.12646 88.96619 33771 ft 481 kts 289°
2026-04-24 08:52 6.14679 88.90235 33772 ft 480 kts 289°
2026-04-24 08:53 6.16704 88.83875 33771 ft 479 kts 289°
2026-04-24 08:53 6.18723 88.77534 33771 ft 478 kts 289°
2026-04-24 08:54 6.20751 88.71162 33772 ft 478 kts 289°
2026-04-24 08:54 6.22770 88.64812 33777 ft 478 kts 289°
2026-04-24 08:55 6.24782 88.58482 33783 ft 478 kts 289°
2026-04-24 08:55 6.26803 88.52125 33791 ft 478 kts 289°
2026-04-24 08:56 6.28810 88.45803 33795 ft 478 kts 289°
2026-04-24 08:56 6.30834 88.39429 33796 ft 478 kts 289°
2026-04-24 08:57 6.32853 88.33064 33795 ft 478 kts 289°
2026-04-24 08:57 6.34856 88.26748 33801 ft 478 kts 289°
2026-04-24 08:58 6.36876 88.20377 33829 ft 477 kts 289°
2026-04-24 08:58 6.38879 88.14054 33872 ft 477 kts 289°
2026-04-24 08:59 6.40886 88.07718 33921 ft 476 kts 289°
2026-04-24 08:59 6.42887 88.01402 33956 ft 476 kts 289°
2026-04-24 09:00 6.45146 87.95160 33966 ft 475 kts 292°
2026-04-24 09:00 6.47485 87.88989 33968 ft 475 kts 292°
2026-04-24 09:01 6.49841 87.82767 33975 ft 475 kts 292°
2026-04-24 09:01 6.52172 87.76604 33987 ft 475 kts 292°
2026-04-24 09:02 6.54512 87.70408 33993 ft 475 kts 292°
2026-04-24 09:02 6.56852 87.64207 33995 ft 475 kts 292°
2026-04-24 09:03 6.59188 87.58015 33996 ft 475 kts 292°
2026-04-24 09:03 6.61526 87.51815 33996 ft 475 kts 292°
2026-04-24 09:04 6.63861 87.45617 33996 ft 475 kts 292°
2026-04-24 09:04 6.66196 87.39422 33996 ft 475 kts 292°
2026-04-24 09:05 6.68532 87.33219 33995 ft 475 kts 292°
2026-04-24 09:05 6.70854 87.27052 33996 ft 475 kts 292°
2026-04-24 09:06 6.73190 87.20842 33995 ft 475 kts 292°
2026-04-24 09:06 6.75527 87.14628 33917 ft 476 kts 292°
2026-04-24 09:07 6.77857 87.08429 33846 ft 476 kts 292°
2026-04-24 09:07 6.81354 86.99114 33808 ft 475 kts 292°
2026-04-24 09:08 6.83689 86.92894 33801 ft 474 kts 293°
2026-04-24 09:08 6.86010 86.86710 33799 ft 473 kts 293°
2026-04-24 09:09 6.88333 86.80527 33798 ft 473 kts 293°
2026-04-24 09:09 6.90663 86.74324 33796 ft 477 kts 293°
2026-04-24 09:10 6.93020 86.68050 33796 ft 483 kts 292°
2026-04-24 09:10 6.95388 86.61745 33797 ft 488 kts 291°
2026-04-24 09:11 6.97787 86.55343 33801 ft 489 kts 290°
2026-04-24 09:11 7.00186 86.48933 33812 ft 488 kts 290°
2026-04-24 09:12 7.01362 86.45787 33820 ft 487 kts 290°